Total_Precipitation_Accumulation
2.01 2.12 2.12 2.10 2.08 2.01 2.06 2.14 2.22 2.15 1.95 1.73 1.68 1.59 1.61 1.61 1.72 1.39 1.40 1.57 1.39 1.28 1.21 1.16 1.15 1.09 1.05 1.04 1.02 1.02 1.06 1.16 1.27 1.37 1.45 1.54 1.69 1.88
1.75 1.89 1.97 2.00 2.09 2.13 2.21 2.24 2.24 2.24 2.14 1.84 1.74 1.67 1.64 1.57 1.82 1.56 1.53 1.58 1.37 1.21 1.10 1.02 0.98 0.95 0.91 0.91 0.93 0.94 0.93 0.95 0.99 1.06 1.15 1.24 1.35 1.50
1.57 1.66 1.76 1.80 1.90 1.94 2.00 2.03 2.12 2.17 2.14 1.94 1.80 1.77 1.73 1.71 1.74 1.59 1.49 1.41 1.31 1.20 1.05 0.95 0.92 0.89 0.87 0.87 0.89 0.89 0.89 0.89 0.92 0.96 1.01 1.08 1.15 1.22
1.40 1.45 1.54 1.56 1.62 1.62 1.72 1.78 1.80 1.87 1.92 1.98 2.00 1.93 1.84 1.80 1.71 1.55 1.34 1.17 1.13 1.12 1.01 0.96 0.94 0.94 0.95 0.96 0.94 0.92 0.87 0.80 0.81 0.87 0.92 0.93 0.95 1.02
1.18 1.21 1.26 1.30 1.30 1.28 1.35 1.37 1.46 1.56 1.76 1.85 1.87 1.91 1.88 1.87 1.88 1.61 1.42 1.37 1.05 1.00 0.94 0.94 0.94 0.92 0.90 0.88 0.86 0.84 0.81 0.73 0.65 0.66 0.74 0.82 0.85 0.85
0.98 1.01 1.00 1.00 1.00 1.02 1.04 1.10 1.23 1.46 1.64 1.70 1.65 1.67 1.72 1.70 1.82 1.73 1.59 1.46 1.24 0.92 0.86 0.79 0.81 0.83 0.82 0.76 0.74 0.72 0.72 0.73 0.70 0.66 0.65 0.64 0.67 0.68
0.87 0.87 0.82 0.83 0.87 0.85 0.81 0.91 1.10 1.34 1.46 1.54 1.56 1.51 1.50 1.54 1.57 1.51 1.50 1.49 1.37 1.11 1.01 0.82 0.75 0.79 0.82 0.81 0.77 0.70 0.65 0.63 0.63 0.61 0.61 0.61 0.61 0.64
0.85 0.76 0.69 0.70 0.71 0.71 0.72 0.81 0.94 1.05 1.17 1.30 1.36 1.38 1.37 1.38 1.45 1.46 1.48 1.51 1.48 1.25 1.18 1.06 0.88 0.95 0.91 0.84 0.78 0.69 0.67 0.67 0.65 0.64 0.65 0.65 0.63 0.63
0.88 0.86 0.73 0.61 0.68 0.73 0.74 0.77 0.82 0.87 0.97 1.13 1.24 1.24 1.28 1.36 1.51 1.51 1.53 1.53 1.48 1.30 1.30 1.28 1.11 1.07 0.87 0.74 0.77 0.70 0.65 0.63 0.64 0.62 0.64 0.64 0.65 0.63
0.82 0.83 0.84 0.81 0.77 0.80 0.77 0.79 0.83 0.88 0.93 1.00 1.15 1.19 1.14 1.22 1.39 1.42 1.43 1.41 1.36 1.28 1.31 1.36 1.13 1.03 0.82 0.85 0.79 0.65 0.59 0.60 0.61 0.55 0.55 0.57 0.62 0.65
0.66 0.67 0.68 0.68 0.67 0.72 0.79 0.87 0.89 0.89 0.79 0.84 0.90 0.98 1.09 1.14 1.19 1.25 1.35 1.49 1.45 1.33 1.28 1.36 1.23 1.06 0.92 0.96 0.85 0.71 0.64 0.67 0.64 0.54 0.49 0.48 0.51 0.58
0.63 0.62 0.61 0.57 0.55 0.53 0.62 0.81 0.95 0.92 0.85 0.85 0.97 1.12 1.19 1.20 1.15 1.23 1.34 1.44 1.44 1.45 1.28 1.29 1.29 1.18 1.12 0.95 0.88 0.86 0.85 0.89 0.80 0.63 0.52 0.49 0.51 0.56
0.63 0.64 0.63 0.54 0.46 0.45 0.53 0.68 0.76 0.73 0.82 1.04 1.26 1.32 1.30 1.24 1.16 1.13 1.26 1.39 1.45 1.45 1.23 1.22 1.28 1.30 1.35 1.16 0.90 0.90 1.00 1.10 1.07 0.89 0.68 0.60 0.57 0.55
0.58 0.58 0.55 0.50 0.42 0.44 0.47 0.55 0.58 0.67 0.90 1.17 1.33 1.31 1.14 1.01 0.99 0.96 1.00 1.16 1.28 1.26 1.15 1.16 1.27 1.32 1.33 1.23 1.05 0.96 1.06 1.20 1.26 1.17 0.97 0.83 0.76 0.68
0.50 0.50 0.49 0.51 0.51 0.57 0.59 0.57 0.63 0.83 1.05 1.18 1.21 1.12 1.01 0.94 0.92 0.93 0.90 1.02 1.08 0.99 0.90 0.95 1.11 1.21 1.30 1.28 1.22 1.24 1.31 1.42 1.41 1.37 1.26 1.05 0.90 0.84
0.49 0.54 0.62 0.68 0.70 0.71 0.74 0.80 0.85 0.92 0.95 1.05 1.04 0.97 0.87 0.87 0.89 0.87 0.88 0.93 1.03 1.00 0.91 0.88 0.98 1.14 1.26 1.24 1.31 1.39 1.43 1.63 1.60 1.47 1.41 1.34 1.17 0.97
0.48 0.61 0.79 0.85 0.87 0.83 0.79 0.80 0.84 0.86 0.88 0.88 0.86 0.84 0.83 0.82 0.81 0.79 0.82 0.84 0.93 0.96 0.96 0.93 0.96 1.02 1.02 1.06 1.19 1.25 1.32 1.49 1.57 1.51 1.46 1.54 1.53 1.29
0.51 0.74 0.86 0.88 0.89 0.79 0.73 0.69 0.69 0.72 0.71 0.72 0.72 0.74 0.76 0.77 0.78 0.75 0.75 0.79 0.86 0.86 0.87 0.90 0.92 1.03 1.03 0.93 1.06 1.18 1.19 1.36 1.45 1.40 1.33 1.48 1.62 1.43
0.51 0.66 0.76 0.82 0.82 0.72 0.66 0.65 0.67 0.66 0.63 0.63 0.66 0.68 0.70 0.71 0.74 0.75 0.75 0.78 0.80 0.80 0.79 0.80 0.83 0.94 1.03 1.06 1.05 1.13 1.16 1.21 1.23 1.23 1.23 1.28 1.46 1.44
0.54 0.60 0.65 0.70 0.72 0.68 0.65 0.65 0.64 0.64 0.62 0.60 0.61 0.64 0.67 0.68 0.66 0.68 0.70 0.69 0.73 0.76 0.78 0.80 0.81 0.86 0.93 0.98 1.10 1.14 1.09 0.98 0.94 1.01 1.06 1.14 1.26 1.25
0.54 0.55 0.56 0.58 0.59 0.60 0.62 0.63 0.61 0.59 0.59 0.57 0.58 0.63 0.66 0.66 0.66 0.61 0.59 0.58 0.65 0.71 0.75 0.79 0.80 0.75 0.76 0.82 0.96 1.05 1.04 1.06 0.97 0.88 0.87 0.93 0.96 0.89
0.48 0.52 0.54 0.55 0.53 0.51 0.49 0.51 0.54 0.53 0.51 0.52 0.57 0.63 0.66 0.66 0.62 0.56 0.57 0.62 0.66 0.70 0.71 0.70 0.69 0.70 0.73 0.85 0.94 1.02 0.99 0.87 0.83 0.85 0.82 0.68 0.59 0.63
0.51 0.52 0.50 0.51 0.46 0.43 0.44 0.46 0.47 0.48 0.49 0.51 0.55 0.60 0.60 0.57 0.54 0.49 0.48 0.50 0.53 0.56 0.61 0.66 0.67 0.68 0.69 0.72 0.78 0.80 0.76 0.66 0.54 0.55 0.68 0.70 0.59 0.58